VE3MNX Weather Reports


time (UTC)temp
C
wind
direction
speed
KPH
gust
KPH
rain 1hr
cm
rain 24hr
cm
rain mn
cm
humidity
%
barometer
mb
20260510175439 13 324 14.5 19.3 0.00 0.38 0.00 45 1016.6
20260510173941 13 343 9.7 16.1 0.00 0.38 0.00 45 1016.6
20260510172438 12 314 4.8 14.5 0.00 0.38 0.00 48 1016.6
20260510170938 12 337 9.7 14.5 0.00 0.38 0.00 48 1016.9
20260510165439 12 339 8.0 12.9 0.00 0.38 0.00 46 1016.9
20260510163938 12 315 9.7 11.3 0.00 0.38 0.00 52 1016.6
20260510162439 12 313 11.3 14.5 0.00 0.38 0.00 54 1016.3
20260510160938 12 286 4.8 19.3 0.00 0.38 0.00 49 1016.3
20260510155438 12 295 11.3 14.5 0.00 0.38 0.00 55 1016.3
20260510153938 12 341 4.8 9.7 0.00 0.38 0.00 60 1016.3
20260510152439 12 298 9.7 11.3 0.00 0.38 0.00 60 1016.3
20260510150940 12 308 8.0 11.3 0.00 0.38 0.00 63 1015.9
20260510145439 11 309 4.8 8.0 0.00 0.38 0.00 67 1015.9
20260510143938 11 346 4.8 9.7 0.00 0.38 0.00 67 1015.8
20260510142439 11 341 1.6 4.8 0.00 0.38 0.00 69 1015.6
20260510140938 11 333 4.8 8.0 0.00 0.38 0.00 69 1015.6
20260510135439 10 334 3.2 11.3 0.00 0.38 0.00 68 1015.9
20260510133938 10 310 4.8 8.0 0.00 0.38 0.00 71 1015.6
20260510132438 9 340 9.7 11.3 0.00 0.38 0.00 71 1015.6
20260510130938 9 322 11.3 12.9 0.00 0.38 0.00 71 1015.2
20260510125440 8 339 4.8 8.0 0.00 0.38 0.00 74 1015.6
20260510123938 8 334 4.8 8.0 0.00 0.38 0.00 75 1015.2
20260510122438 8 335 4.8 8.0 0.00 0.38 0.00 79 1014.9
20260510120938 7 330 4.8 9.7 0.00 0.38 0.00 79 1014.9
20260510115438 7 338 4.8 8.0 0.00 0.38 0.00 82 1014.6
20260510113938 6 336 8.0 9.7 0.00 0.38 0.00 84 1014.6
20260510112440 6 335 4.8 8.0 0.00 0.38 0.00 84 1014.2
20260510110939 5 338 8.0 9.7 0.00 0.38 0.00 85 1013.9
20260510105438 5 341 4.8 9.7 0.00 0.38 0.00 87 1013.9
20260510103938 4 333 8.0 9.7 0.00 0.38 0.00 89 1013.8
20260510102440 3 337 9.7 11.3 0.00 0.38 0.00 91 1013.4
20260510100939 3 339 9.7 11.3 0.00 0.38 0.00 91 1013.2
20260510095438 4 344 8.0 9.7 0.00 0.38 0.00 90 1012.9
20260510093938 5 336 4.8 11.3 0.00 0.38 0.00 88 1012.9
20260510092439 5 334 8.0 11.3 0.00 0.38 0.00 89 1012.5
20260510090941 5 333 4.8 9.7 0.00 0.38 0.00 88 1012.2
20260510085439 5 336 4.8 8.0 0.00 0.38 0.00 88 1011.9
20260510083939 5 339 4.8 8.0 0.00 0.38 0.00 87 1011.5
20260510082441 6 327 4.8 8.0 0.00 0.38 0.00 84 1011.2
20260510080939 6 345 1.6 8.0 0.00 0.38 0.00 82 1011.2
20260510075439 6 332 4.8 8.0 0.00 0.38 0.00 81 1010.8
20260510073939 7 341 4.8 9.7 0.00 0.38 0.00 82 1010.2
20260510072439 7 26 4.8 11.3 0.00 0.38 0.00 85 1009.8
20260510070939 8 344 3.2 9.7 0.00 0.38 0.00 83 1009.5
20260510065438 8 75 4.8 9.7 0.00 0.38 0.00 81 1009.5
20260510063938 8 327 4.8 9.7 0.00 0.38 0.00 81 1008.8
20260510062438 8 336 8.0 9.7 0.00 0.38 0.00 79 1008.8
20260510060938 9 0 3.2 4.8 0.00 0.38 0.00 79 1008.8
20260510055439 9 341 3.2 8.0 0.00 0.38 0.00 78 1008.5
20260510053938 9 354 3.2 11.3 0.00 0.38 0.00 76 1008.5
20260510052439 10 356 3.2 9.7 0.00 0.38 0.00 77 1008.5
20260510050938 9 3 8.0 14.5 0.00 0.38 0.00 78 1007.8
20260510045438 10 342 9.7 11.3 0.00 0.38 0.00 79 1007.8
20260510043938 10 3 8.0 14.5 0.00 0.38 0.00 78 1007.5
20260510042438 10 328 11.3 12.9 0.00 0.38 0.00 79 1007.5
20260510040938 10 336 8.0 12.9 0.00 0.38 0.00 77 1007.5
20260510035438 11 80 9.7 14.5 0.05 0.38 0.38 77 1007.1
20260510033938 11 45 8.0 14.5 0.05 0.38 0.38 78 1006.8
20260510032441 12 344 8.0 14.5 0.05 0.38 0.38 77 1006.1
20260510030939 13 340 8.0 11.3 0.03 0.36 0.36 91 1005.4
20260510025438 13 341 8.0 9.7 0.00 0.33 0.33 90 1004.7
20260510023938 13 339 3.2 8.0 0.00 0.33 0.33 88 1005.1
20260510022439 14 345 3.2 8.0 0.00 0.33 0.33 86 1004.1
20260510020940 13 301 3.2 4.8 0.00 0.33 0.33 89 1004.4
20260510015440 14 254 12.9 16.1 0.00 0.33 0.33 89 1004.4
20260510013938 14 299 3.2 8.0 0.00 0.33 0.33 86 1003.7
20260510012438 14 294 8.0 9.7 0.00 0.33 0.33 86 1003.4
20260510010938 14 292 8.0 14.5 0.00 0.33 0.33 85 1003.1
20260510005439 14 299 8.0 9.7 0.00 0.33 0.33 86 1003.0
20260510003937 15 295 9.7 11.3 0.00 0.33 0.33 84 1003.0
20260510002547 15 301 11.3 12.9 0.00 0.33 0.33 83 1003.0
20260510001047 15 292 3.2 4.8 0.00 0.33 0.33 84 1002.7
20260509235438 15 298 11.3 12.9 0.00 0.33 0.33 83 1002.4
20260509233938 13 265 12.9 19.3 0.00 0.33 0.33 89 1002.4
20260509232438 13 268 9.7 20.9 0.00 0.33 0.33 88 1002.0
20260509230938 13 268 9.7 16.1 0.00 0.33 0.33 90 1002.0
20260509225438 13 263 9.7 16.1 0.00 0.33 0.33 89 1001.7
20260509223938 14 250 11.3 19.3 0.00 0.33 0.33 86 1001.7
20260509222439 16 255 8.0 11.3 0.03 0.33 0.33 79 1001.4
20260509220940 16 294 4.8 11.3 0.05 0.33 0.33 86 1001.4
20260509215438 14 269 8.0 11.3 0.30 0.33 0.33 91 1001.4
20260509213937 13 266 9.7 16.1 0.33 0.33 0.33 93 1001.4
20260509212439 12 286 8.0 11.3 0.30 0.30 0.30 95 1001.7
20260509210938 11 299 8.0 12.9 0.28 0.28 0.28 96 1001.4
20260509205438 15 355 22.5 29.0 0.03 0.03 0.03 86 1002.0
20260509203937 13 288 9.7 11.3 0.00 0.00 0.00 93 1001.4
20260509202438 12 232 16.1 22.5 0.00 0.00 0.00 95 1000.0
20260509200937 12 257 11.3 14.5 0.00 0.00 0.00 95 1001.0
20260509195438 12 232 8.0 14.5 0.00 0.00 0.00 94 1001.4
20260509193938 13 271 14.5 16.1 0.00 0.00 0.00 90 1001.4
20260509192438 13 260 12.9 20.9 0.00 0.00 0.00 92 1001.4
20260509190938 13 240 12.9 16.1 0.00 0.00 0.00 92 1001.4
20260509185439 13 254 14.5 16.1 0.00 0.00 0.00 92 1001.7
20260509183937 12 257 11.3 16.1 0.00 0.00 0.00 94 1002.4
20260509182438 12 238 8.0 9.7 0.00 0.00 0.00 95 1002.4
20260509180938 12 243 9.7 12.9 0.00 0.00 0.00 95 1002.4